Location: Ambatotampy
(18.8181°S, 47.6186°E)
Time: 19:13:35
(UTC+00:00)

Hubble Space Telescope - Pass Details

Date: 21 January 2021
Orbit: 535 x 539 km, 28.5° (Epoch: 08 March)

Event Time Altitude Azimuth Distance (km) Brightness Sun altitude
Exits shadow 01:05:26 41° 267° (W) 777 1.1 -18.6°
Maximum altitude 01:06:41 66° 201° (SSW) 588 0.9 -18.4°
Drops below altitude 10° 01:10:48 10° 118° (ESE) 1,790 4.7 -17.5°
Sets 01:13:05 0° 115° (ESE) 2,682 6.1 -17.1°
